SCP
0 -0 -0 -0 -0 -0 -0 -0 -0 -0 -0 -0 -0 -0 -0 -0 0 0 0 0 0 0 0 0 0 0 0 0 0 0 0 0 0 0 0 0 0 0 0 0 0 0 0
0 -0 -0 -0 -0 0 0 0 0 -0 -0 -0 -0 -0 -0 0 0 0 0 0 0 0 0 0 0 0 0 0 0 0 0 0 0 0 0 0 0 0 0 0 0 0 0
0 0 0 -0 0 0 0 0 0 0 0 -0 -0 -0 0 0 0 0 0 0 0 0 0 0 0 0 0 0 0 0 0 0 0 0 0 0 0 0 0 0 0 0 0
0 0 0 0 0 0 0 0 0 -0 -0 -0 -0 0 0 0 0 0 0 0 0 0 0 0 0 0 0 0 0 0 0 0 0 0 0 0 0 0 0 0 0 0 0
0 0 0 0 0 0 -0 -0 0 0 -0 0 0 0 0 0 0 0 0 0 0 0 0 0 0 0 0 0 0 0 0 0 0 0 0 0 0 0 0 0 0 0 0
0 0 0 0 0 -0 -0 0 0 0 0 0 0 0 0 0 0 0 0 0 0 0 0 0 0 0 0 0 0 0 0 0 0 0 0 0 0 0 -0 -0 0 0 0
-0 0 0 0 -0 -0 -0 0 -0 0 0 0 0 0 0 0 0 0 0 0 0 0 0 0 0 0 0 0 0 0 0 0 0 0 0 0 0 0 0 0 0 0 0
-0 -0 -0 0 0 -0 -0 0 -0 -0 0 0 -0 -0 -0 -0 -0 -0 -0 -0 -0 0 0 0 0 0 0 0 0 0 0 0 0 0 0 0 0 0 0 0 0 0 0
-0 0 -0 -0 0 -0 -0 -0 -0 -0 0 -0 -0 -0 -0 -0 -0 -0 -0 -0 0 0 0 0 0 0 0 0 0 0 0 0 0 0 0 0 0 0 0 0 0 0 0
0 0 0 0 -0 -0 0 0 0 0 0 0 -0 0 0 0 0 -0 -0 -0 -0 0 0 0 0 0 0 0 0 0 0 0 0 0 0 0 0 0 0 0 0 0 0
0 0 0 -0 0 0 0 0 0 0 0 0 0 0 0 0 0 0 -0 -0 -0 -0 -0 -0 -0 -0 0 0 0 0 0 1 0 0 -0 0 0 0 0 0 0 0 0
0 0 0 0 0 0 0 0 0 0 -0 0 0 -0 -0 0 0 0 0 -0 -0 -0 -0 -0 0 0 0 0 0 -0 0 1 1 0 0 -0 0 -0 -0 0 0 0 0
0 0 0 0 0 0 0 0 0 0 0 0 0 0 -0 -0 0 0 0 0 0 0 0 0 0 0 0 0 0 -0 0 0 0 0 0 0 0 0 0 -0 0 0 0
0 0 0 0 0 0 0 0 0 0 0 0 0 0 0 0 -0 -0 0 0 0 0 0 0 0 0 0 0 0 0 -0 -0 -0 0 0 0 0 0 0 0 0 0 0
0 0 0 0 0 0 0 0 0 0 0 0 0 -0 -0 -0 -0 -0 0 0 0 0 0 0 0 0 0 0 0 0 0 -0 0 0 0 0 0 0 0 0 0 0 0
0 0 0 0 0 0 0 0 0 0 0 0 -0 -0 -0 -0 -0 -0 -0 -0 0 0 0 0 0 0 0 0 0 0 0 0 0 0 0 0 0 0 0 0 0 0 0
0 0 0 0 0 0 0 0 0 0 0 -0 -0 -0 -0 -0 -0 -0 -0 -0 -0 -0 0 0 0 0 0 0 0 0 0 0 0 0 0 0 0 0 0 0 0 0 0
0 0 0 0 0 0 0 0 0 0 -0 -0 -0 -0 -0 -0 -0 -0 -0 -0 -0 -0 0 0 0 0 0 0 0 0 0 0 0 0 0 0 0 0 0 0 0 0 0
0 0 0 0 0 0 0 0 0 0 -0 -0 -0 -0 -0 -0 -0 -0 -0 -0 -0 -0 -0 -0 0 0 0 0 0 0 0 0 0 0 -0 -0 0 0 0 0 0 0 0
0 0 0 0 0 0 0 0 0 0 0 -0 0 -0 -0 -0 -0 -0 -0 -0 -0 -0 -0 -0 -0 0 0 0 0 0 0 0 0 0 -0 -0 -0 -0 -0 -0 0 0 0
0 0 0 0 0 0 0 0 0 0 0 0 0 0 -0 -0 -0 -0 -0 -0 -0 -0 -0 0 -0 0 0 0 0 0 0 0 0 0 0 -0 0 0 0 -0 -0 -0 -0
0 0 0 0 0 0 0 0 0 0 0 -0 0 0 -0 -0 -0 -0 -0 -0 -0 -0 0 0 0 -0 0 0 0 0 0 0 0 0 0 -0 0 0 0 0 0 0 -0
0 0 0 0 0 0 0 0 0 0 -0 0 0 0 -0 -0 -0 -0 -0 -0 -0 0 0 0 0 -0 -0 0 0 -0 -0 -0 0 0 0 -0 0 0 -0 0 0 0 0
0 0 0 0 0 0 0 0 0 0 0 0 0 -0 -0 -0 -0 -0 -0 -0 -0 0 0 0 0 0 0 -0 -0 -0 -0 -0 -0 -0 -0 -0 -0 0 -0 0 0 0 0
0 0 0 0 0 0 0 0 0 0 0 0 0 0 0 -0 -0 -0 -0 -0 -0 -0 0 0 0 0 0 0 0 -0 -0 -0 -0 -0 -0 -0 -0 -0 -0 -0 -0 -0 -0
0 0 0 0 0 0 0 0 0 0 0 0 0 0 0 -0 -0 -0 -0 -0 -0 0 0 0 0 0 0 0 0 0 -0 -0 -0 -0 -0 -0 -0 -0 -0 -0 -0 -0 -0
Wind_Speed_500mb
19 26 30 33 35 37 37 39 39 40 40 40 39 39 40 40 41 42 41 39 39 35 33 27 33 40 40 37 32 33 37 32 31 35 31 29 26 19 27 24 21 20 21
25 29 31 36 38 39 41 40 41 42 41 41 39 39 42 41 42 43 45 46 44 45 46 41 35 30 39 44 41 37 40 42 36 37 36 29 25 24 22 23 20 21 24
23 29 35 39 42 43 41 42 40 40 39 37 36 36 36 40 43 45 46 48 50 51 52 53 52 40 36 41 47 44 43 44 43 39 42 42 33 24 22 21 20 20 25
26 33 37 42 42 43 41 40 38 36 34 34 34 36 38 37 38 40 42 45 48 53 55 58 56 55 42 42 43 48 46 45 43 45 43 47 40 34 28 21 24 27 29
27 34 40 42 43 41 38 35 31 28 31 32 35 36 36 34 33 34 36 39 43 47 53 57 61 65 59 58 48 47 48 44 42 42 45 45 44 38 28 25 28 30 30
31 36 41 44 42 37 34 30 29 34 35 36 38 37 37 37 37 33 36 37 39 43 47 52 58 63 68 66 65 50 48 48 41 43 46 46 45 39 33 31 29 29 28
33 40 42 38 32 29 28 30 30 30 32 33 36 35 37 41 44 45 48 46 41 39 42 46 52 61 66 67 64 58 48 46 46 47 49 49 45 36 38 36 36 35 35
34 38 36 30 28 27 28 33 36 37 39 40 41 46 54 55 56 57 55 54 52 53 54 57 53 53 60 66 70 61 47 49 52 52 54 51 42 40 38 39 38 37 38
35 35 31 29 30 32 37 41 43 43 42 41 41 43 45 47 46 46 45 42 41 44 49 48 48 49 44 46 54 61 60 50 43 54 52 49 46 43 42 44 44 44 44
32 30 29 31 32 35 35 38 39 37 34 35 36 36 37 38 40 37 40 47 48 48 47 49 48 45 44 43 39 32 37 57 34 40 39 49 60 55 43 41 46 48 45
26 25 29 31 32 31 32 31 30 29 31 30 31 32 34 38 39 43 49 52 50 48 49 48 45 50 51 43 27 12 6 17 36 39 40 34 26 19 28 35 40 43 45
23 25 29 29 28 28 27 26 24 27 32 31 33 31 36 41 45 50 59 58 54 55 54 50 48 45 41 45 36 13 13 7 14 31 34 27 29 21 24 44 39 37 39
23 25 24 25 26 25 24 24 23 25 30 33 36 37 41 44 52 60 64 63 62 52 52 48 50 46 38 38 40 29 10 8 10 18 26 29 23 28 29 30 33 63 45
20 23 24 23 22 21 23 21 24 25 31 32 35 41 44 48 54 59 57 58 62 52 49 49 49 48 29 25 31 35 18 20 25 26 25 26 26 33 29 31 37 43 52
18 18 16 17 16 18 20 22 23 27 32 34 34 40 43 47 50 52 53 54 53 58 43 43 43 44 42 23 21 28 27 25 24 22 22 23 28 29 40 39 46 43 46
14 14 13 13 15 19 19 20 24 28 32 32 37 41 44 45 46 48 49 51 51 50 51 37 36 36 39 40 33 28 32 26 20 17 18 13 4 9 18 32 42 40 46
11 11 10 10 14 15 17 22 23 28 29 32 36 39 42 43 44 46 45 46 48 48 44 39 34 24 24 27 27 23 17 9 13 12 12 9 14 18 26 35 46 51 55
6 7 6 8 11 16 17 19 23 25 27 30 34 38 42 44 46 47 48 50 50 46 44 42 40 37 26 23 31 31 27 16 21 23 24 26 33 25 25 30 39 40 56
1 2 4 8 15 16 14 19 20 23 25 30 34 39 43 44 46 47 50 53 53 53 54 55 51 41 33 27 38 36 32 36 32 37 48 53 53 50 47 47 42 40 38
6 4 6 12 15 10 13 14 17 20 24 29 34 38 39 41 44 46 49 51 51 51 53 55 55 54 39 24 20 15 25 40 43 51 59 58 59 59 56 52 52 51 51
10 8 9 13 14 11 9 8 12 17 23 26 32 34 37 41 44 47 50 49 53 56 58 54 51 51 55 35 13 14 25 51 50 62 66 68 66 60 57 57 62 61 56
16 13 14 17 16 13 6 4 9 12 19 25 30 32 37 40 43 48 50 52 52 52 52 54 55 56 56 56 45 31 28 27 39 62 62 68 67 65 64 68 66 67 64
21 18 18 20 20 15 7 2 5 10 16 22 25 29 36 39 41 45 49 50 49 53 57 55 55 58 55 56 55 35 15 18 37 48 54 58 58 65 68 71 67 67 67
27 24 24 24 20 14 8 2 4 9 10 17 24 32 32 34 39 44 47 47 48 51 53 55 52 52 51 57 55 47 39 37 20 25 50 66 59 54 60 65 67 63 57
32 31 31 28 21 15 10 5 5 8 11 16 25 25 27 31 37 43 45 45 48 51 51 48 48 50 52 52 50 44 40 37 43 20 25 62 57 48 49 57 61 63 58
38 36 35 30 23 17 12 7 7 9 12 18 20 18 23 29 36 42 43 44 46 45 48 50 50 50 52 51 47 44 47 44 44 32 30 48 43 53 39 56 57 62 63
Wind_Direction_500mb
330 344 346 342 342 336 332 328 325 319 314 309 305 301 296 293 289 289 289 284 280 284 279 291 298 289 287 285 285 265 268 268 256 247 254 243 231 244 279 274 251 216 200
339 340 344 339 337 333 330 328 324 318 316 313 311 307 302 298 293 288 286 285 282 280 278 279 275 294 284 281 279 275 263 261 257 248 246 235 227 257 278 267 230 211 210
333 338 340 336 336 333 331 325 328 328 329 331 329 323 317 308 304 298 292 288 285 283 281 280 281 276 283 279 272 273 270 262 256 250 243 238 246 251 257 256 219 215 212
336 337 334 336 336 335 337 337 340 341 339 334 333 333 333 328 323 317 309 300 292 286 281 278 276 273 277 279 270 266 269 267 263 251 241 242 241 235 242 237 223 217 220
332 334 336 337 337 340 337 338 342 341 346 347 349 353 350 345 339 328 321 312 304 297 290 284 279 275 270 265 273 264 261 264 260 251 239 235 231 232 221 227 227 221 224
332 335 338 340 341 337 342 346 356 3 3 0 359 359 358 356 352 343 337 329 321 310 300 292 285 277 273 269 262 265 262 257 254 249 235 229 223 223 216 223 230 226 229
336 340 339 337 336 345 346 9 11 11 11 5 5 4 2 3 359 353 346 341 333 319 307 301 295 287 276 268 263 261 261 257 249 243 238 228 223 214 221 222 228 237 239
337 337 337 340 346 355 6 18 21 19 16 13 11 11 9 2 357 353 348 348 346 337 332 328 315 299 287 283 271 256 253 254 252 237 238 234 225 223 224 232 240 240 243
337 339 343 353 2 9 16 18 17 15 14 9 9 11 9 3 357 359 359 354 352 350 345 341 333 328 323 294 286 261 244 249 254 260 249 224 232 234 240 245 246 249 253
335 342 355 6 11 14 10 14 12 11 8 7 15 17 15 13 14 16 19 18 15 13 8 1 352 341 331 321 290 280 252 254 263 271 258 243 225 222 236 252 255 255 257
331 350 7 12 13 12 10 12 15 14 10 16 23 22 14 22 27 33 29 25 21 17 22 21 12 9 355 345 329 218 210 275 256 279 283 284 250 223 276 250 258 264 266
345 2 13 15 13 13 16 24 26 23 24 29 28 21 20 22 25 35 33 28 24 27 31 32 33 19 14 10 354 307 248 348 279 284 288 274 275 275 269 268 266 272 275
358 9 13 15 17 22 26 34 44 41 43 40 39 40 36 32 30 31 30 25 23 29 31 35 33 28 34 21 19 359 345 302 294 290 290 287 272 271 275 268 250 252 268
6 14 17 19 23 27 41 52 55 55 52 48 43 42 37 33 33 32 26 22 22 25 32 33 33 33 32 25 26 34 12 350 348 339 329 311 288 274 273 279 262 251 246
16 18 22 28 36 54 61 67 63 55 51 48 44 41 36 30 31 30 26 26 25 23 27 31 33 31 33 22 3 26 24 26 23 6 8 352 322 316 289 276 274 281 263
17 19 27 38 56 69 72 68 60 57 50 43 41 40 37 31 28 30 28 27 28 25 26 22 19 26 27 32 36 38 40 41 26 0 357 9 12 308 285 275 261 269 267
20 23 40 55 69 83 75 68 60 52 47 40 37 34 35 30 27 28 27 25 29 28 24 23 26 18 16 36 44 49 59 24 12 3 351 319 294 284 285 277 275 276 274
24 35 56 78 81 92 82 59 59 51 40 36 33 33 34 33 31 32 32 32 31 26 22 22 29 32 35 46 57 61 61 59 54 43 24 10 9 354 328 300 287 288 268
17 73 120 122 114 100 69 72 50 40 33 37 39 41 41 40 40 39 41 41 38 35 35 36 35 36 45 58 73 62 52 39 23 13 3 356 353 348 338 335 325 321 296
212 195 166 154 143 102 95 58 38 35 39 46 50 49 46 46 45 42 43 43 42 41 42 40 43 44 48 74 72 41 33 29 29 21 10 2 354 347 347 344 335 324 315
213 205 184 173 164 139 117 45 31 34 50 56 56 55 52 49 47 45 43 43 43 43 44 44 48 45 52 66 72 80 54 44 38 25 13 8 5 4 356 353 348 340 335
212 206 193 184 180 165 144 58 33 47 64 63 59 56 54 50 48 46 41 42 44 47 47 46 48 55 57 51 50 52 44 30 32 23 12 9 10 6 7 6 359 353 346
208 202 190 182 178 171 166 105 52 61 67 68 67 61 55 50 47 47 44 41 42 45 46 48 48 49 53 53 58 64 41 18 12 23 14 7 8 7 2 359 2 359 357
204 198 186 181 180 182 173 153 98 88 90 83 71 60 55 53 51 47 44 41 42 46 47 48 48 50 49 49 52 57 60 48 26 350 10 6 18 19 3 7 8 7 5
201 196 190 189 189 191 182 173 124 113 112 87 70 61 56 56 55 50 46 43 42 43 45 47 49 47 48 49 50 50 51 42 37 16 347 359 22 20 22 27 26 24 24
196 196 195 193 195 200 195 172 150 146 126 87 74 65 63 59 59 55 49 46 45 44 45 44 46 45 47 48 48 49 51 49 34 24 3 7 17 21 25 28 24 25 25
Wind_Speed_850mb
19 26 30 33 35 37 37 39 39 40 40 40 39 39 40 40 41 42 41 39 39 35 33 27 33 40 40 37 32 33 37 32 31 35 31 29 26 19 27 24 21 20 21
25 29 31 36 38 39 41 40 41 42 41 41 39 39 42 41 42 43 45 46 44 45 46 41 35 30 39 44 41 37 40 42 36 37 36 29 25 24 22 23 20 21 24
23 29 35 39 42 43 41 42 40 40 39 37 36 36 36 40 43 45 46 48 50 51 52 53 52 40 36 41 47 44 43 44 43 39 42 42 33 24 22 21 20 20 25
26 33 37 42 42 43 41 40 38 36 34 34 34 36 38 37 38 40 42 45 48 53 55 58 56 55 42 42 43 48 46 45 43 45 43 47 40 34 28 21 24 27 29
27 34 40 42 43 41 38 35 31 28 31 32 35 36 36 34 33 34 36 39 43 47 53 57 61 65 59 58 48 47 48 44 42 42 45 45 44 38 28 25 28 30 30
31 36 41 44 42 37 34 30 29 34 35 36 38 37 37 37 37 33 36 37 39 43 47 52 58 63 68 66 65 50 48 48 41 43 46 46 45 39 33 31 29 29 28
33 40 42 38 32 29 28 30 30 30 32 33 36 35 37 41 44 45 48 46 41 39 42 46 52 61 66 67 64 58 48 46 46 47 49 49 45 36 38 36 36 35 35
34 38 36 30 28 27 28 33 36 37 39 40 41 46 54 55 56 57 55 54 52 53 54 57 53 53 60 66 70 61 47 49 52 52 54 51 42 40 38 39 38 37 38
35 35 31 29 30 32 37 41 43 43 42 41 41 43 45 47 46 46 45 42 41 44 49 48 48 49 44 46 54 61 60 50 43 54 52 49 46 43 42 44 44 44 44
32 30 29 31 32 35 35 38 39 37 34 35 36 36 37 38 40 37 40 47 48 48 47 49 48 45 44 43 39 32 37 57 34 40 39 49 60 55 43 41 46 48 45
26 25 29 31 32 31 32 31 30 29 31 30 31 32 34 38 39 43 49 52 50 48 49 48 45 50 51 43 27 12 6 17 36 39 40 34 26 19 28 35 40 43 45
23 25 29 29 28 28 27 26 24 27 32 31 33 31 36 41 45 50 59 58 54 55 54 50 48 45 41 45 36 13 13 7 14 31 34 27 29 21 24 44 39 37 39
23 25 24 25 26 25 24 24 23 25 30 33 36 37 41 44 52 60 64 63 62 52 52 48 50 46 38 38 40 29 10 8 10 18 26 29 23 28 29 30 33 63 45
20 23 24 23 22 21 23 21 24 25 31 32 35 41 44 48 54 59 57 58 62 52 49 49 49 48 29 25 31 35 18 20 25 26 25 26 26 33 29 31 37 43 52
18 18 16 17 16 18 20 22 23 27 32 34 34 40 43 47 50 52 53 54 53 58 43 43 43 44 42 23 21 28 27 25 24 22 22 23 28 29 40 39 46 43 46
14 14 13 13 15 19 19 20 24 28 32 32 37 41 44 45 46 48 49 51 51 50 51 37 36 36 39 40 33 28 32 26 20 17 18 13 4 9 18 32 42 40 46
11 11 10 10 14 15 17 22 23 28 29 32 36 39 42 43 44 46 45 46 48 48 44 39 34 24 24 27 27 23 17 9 13 12 12 9 14 18 26 35 46 51 55
6 7 6 8 11 16 17 19 23 25 27 30 34 38 42 44 46 47 48 50 50 46 44 42 40 37 26 23 31 31 27 16 21 23 24 26 33 25 25 30 39 40 56
1 2 4 8 15 16 14 19 20 23 25 30 34 39 43 44 46 47 50 53 53 53 54 55 51 41 33 27 38 36 32 36 32 37 48 53 53 50 47 47 42 40 38
6 4 6 12 15 10 13 14 17 20 24 29 34 38 39 41 44 46 49 51 51 51 53 55 55 54 39 24 20 15 25 40 43 51 59 58 59 59 56 52 52 51 51
10 8 9 13 14 11 9 8 12 17 23 26 32 34 37 41 44 47 50 49 53 56 58 54 51 51 55 35 13 14 25 51 50 62 66 68 66 60 57 57 62 61 56
16 13 14 17 16 13 6 4 9 12 19 25 30 32 37 40 43 48 50 52 52 52 52 54 55 56 56 56 45 31 28 27 39 62 62 68 67 65 64 68 66 67 64
21 18 18 20 20 15 7 2 5 10 16 22 25 29 36 39 41 45 49 50 49 53 57 55 55 58 55 56 55 35 15 18 37 48 54 58 58 65 68 71 67 67 67
27 24 24 24 20 14 8 2 4 9 10 17 24 32 32 34 39 44 47 47 48 51 53 55 52 52 51 57 55 47 39 37 20 25 50 66 59 54 60 65 67 63 57
32 31 31 28 21 15 10 5 5 8 11 16 25 25 27 31 37 43 45 45 48 51 51 48 48 50 52 52 50 44 40 37 43 20 25 62 57 48 49 57 61 63 58
38 36 35 30 23 17 12 7 7 9 12 18 20 18 23 29 36 42 43 44 46 45 48 50 50 50 52 51 47 44 47 44 44 32 30 48 43 53 39 56 57 62 63
Wind_Direction_850mb
330 344 346 342 342 336 332 328 325 319 314 309 305 301 296 293 289 289 289 284 280 284 279 291 298 289 287 285 285 265 268 268 256 247 254 243 231 244 279 274 251 216 200
339 340 344 339 337 333 330 328 324 318 316 313 311 307 302 298 293 288 286 285 282 280 278 279 275 294 284 281 279 275 263 261 257 248 246 235 227 257 278 267 230 211 210
333 338 340 336 336 333 331 325 328 328 329 331 329 323 317 308 304 298 292 288 285 283 281 280 281 276 283 279 272 273 270 262 256 250 243 238 246 251 257 256 219 215 212
336 337 334 336 336 335 337 337 340 341 339 334 333 333 333 328 323 317 309 300 292 286 281 278 276 273 277 279 270 266 269 267 263 251 241 242 241 235 242 237 223 217 220
332 334 336 337 337 340 337 338 342 341 346 347 349 353 350 345 339 328 321 312 304 297 290 284 279 275 270 265 273 264 261 264 260 251 239 235 231 232 221 227 227 221 224
332 335 338 340 341 337 342 346 356 3 3 0 359 359 358 356 352 343 337 329 321 310 300 292 285 277 273 269 262 265 262 257 254 249 235 229 223 223 216 223 230 226 229
336 340 339 337 336 345 346 9 11 11 11 5 5 4 2 3 359 353 346 341 333 319 307 301 295 287 276 268 263 261 261 257 249 243 238 228 223 214 221 222 228 237 239
337 337 337 340 346 355 6 18 21 19 16 13 11 11 9 2 357 353 348 348 346 337 332 328 315 299 287 283 271 256 253 254 252 237 238 234 225 223 224 232 240 240 243
337 339 343 353 2 9 16 18 17 15 14 9 9 11 9 3 357 359 359 354 352 350 345 341 333 328 323 294 286 261 244 249 254 260 249 224 232 234 240 245 246 249 253
335 342 355 6 11 14 10 14 12 11 8 7 15 17 15 13 14 16 19 18 15 13 8 1 352 341 331 321 290 280 252 254 263 271 258 243 225 222 236 252 255 255 257
331 350 7 12 13 12 10 12 15 14 10 16 23 22 14 22 27 33 29 25 21 17 22 21 12 9 355 345 329 218 210 275 256 279 283 284 250 223 276 250 258 264 266
345 2 13 15 13 13 16 24 26 23 24 29 28 21 20 22 25 35 33 28 24 27 31 32 33 19 14 10 354 307 248 348 279 284 288 274 275 275 269 268 266 272 275
358 9 13 15 17 22 26 34 44 41 43 40 39 40 36 32 30 31 30 25 23 29 31 35 33 28 34 21 19 359 345 302 294 290 290 287 272 271 275 268 250 252 268
6 14 17 19 23 27 41 52 55 55 52 48 43 42 37 33 33 32 26 22 22 25 32 33 33 33 32 25 26 34 12 350 348 339 329 311 288 274 273 279 262 251 246
16 18 22 28 36 54 61 67 63 55 51 48 44 41 36 30 31 30 26 26 25 23 27 31 33 31 33 22 3 26 24 26 23 6 8 352 322 316 289 276 274 281 263
17 19 27 38 56 69 72 68 60 57 50 43 41 40 37 31 28 30 28 27 28 25 26 22 19 26 27 32 36 38 40 41 26 0 357 9 12 308 285 275 261 269 267
20 23 40 55 69 83 75 68 60 52 47 40 37 34 35 30 27 28 27 25 29 28 24 23 26 18 16 36 44 49 59 24 12 3 351 319 294 284 285 277 275 276 274
24 35 56 78 81 92 82 59 59 51 40 36 33 33 34 33 31 32 32 32 31 26 22 22 29 32 35 46 57 61 61 59 54 43 24 10 9 354 328 300 287 288 268
17 73 120 122 114 100 69 72 50 40 33 37 39 41 41 40 40 39 41 41 38 35 35 36 35 36 45 58 73 62 52 39 23 13 3 356 353 348 338 335 325 321 296
212 195 166 154 143 102 95 58 38 35 39 46 50 49 46 46 45 42 43 43 42 41 42 40 43 44 48 74 72 41 33 29 29 21 10 2 354 347 347 344 335 324 315
213 205 184 173 164 139 117 45 31 34 50 56 56 55 52 49 47 45 43 43 43 43 44 44 48 45 52 66 72 80 54 44 38 25 13 8 5 4 356 353 348 340 335
212 206 193 184 180 165 144 58 33 47 64 63 59 56 54 50 48 46 41 42 44 47 47 46 48 55 57 51 50 52 44 30 32 23 12 9 10 6 7 6 359 353 346
208 202 190 182 178 171 166 105 52 61 67 68 67 61 55 50 47 47 44 41 42 45 46 48 48 49 53 53 58 64 41 18 12 23 14 7 8 7 2 359 2 359 357
204 198 186 181 180 182 173 153 98 88 90 83 71 60 55 53 51 47 44 41 42 46 47 48 48 50 49 49 52 57 60 48 26 350 10 6 18 19 3 7 8 7 5
201 196 190 189 189 191 182 173 124 113 112 87 70 61 56 56 55 50 46 43 42 43 45 47 49 47 48 49 50 50 51 42 37 16 347 359 22 20 22 27 26 24 24
196 196 195 193 195 200 195 172 150 146 126 87 74 65 63 59 59 55 49 46 45 44 45 44 46 45 47 48 48 49 51 49 34 24 3 7 17 21 25 28 24 25 25